This is the latest recevied weather packets stored in our database for station/object K5EAA-13. If no packets are shown the sender has not sent any weather packets the latest 10 day(s).
| Time | Temp. | Humidity | Pressure | Rain* | Wind** | Luminosity | Snow |
|---|---|---|---|---|---|---|---|
| 1787701572 | 36.67° C | 31% | 1013.1 hPa | 0 mm | - | 92 W/m² | - |
| 1787701267 | 36.67° C | 30% | 1013 hPa | 0 mm | - | 118 W/m² | - |
| 1787700963 | 36.67° C | 30% | 1013 hPa | 0 mm | - | 122 W/m² | - |
| 1787700658 | 36.67° C | 31% | 1012.9 hPa | 0 mm | - | 133 W/m² | - |
| 1787700354 | 36.67° C | 30% | 1012.8 hPa | 0 mm | - | 158 W/m² | - |
| 1787700049 | 36.67° C | 29% | 1013 hPa | 0 mm | - | 151 W/m² | - |
| 1787699745 | 36.67° C | 30% | 1013 hPa | 0 mm | - | 149 W/m² | - |
| 1787699440 | 36.67° C | 29% | 1012.9 hPa | 0 mm | - | 143 W/m² | - |
| 1787699136 | 36.67° C | 28% | 1012.9 hPa | 0 mm | - | 149 W/m² | - |
| 1787698832 | 36.67° C | 28% | 1013 hPa | 0 mm | - | 150 W/m² | - |
| 1787698527 | 37.22° C | 28% | 1012.8 hPa | 0 mm | - | 146 W/m² | - |
| 1787698223 | 37.22° C | 28% | 1012.9 hPa | 0 mm | - | 158 W/m² | - |
| 1787697919 | 37.22° C | 28% | 1012.8 hPa | 0 mm | - | 180 W/m² | - |
| 1787697619 | 37.22° C | 28% | 1012.9 hPa | 0 mm | - | 163 W/m² | - |
| 1787697315 | 37.22° C | 28% | 1012.8 hPa | 0 mm | - | 259 W/m² | - |
| 1787697009 | 37.22° C | 27% | 1012.7 hPa | 0 mm | - | 156 W/m² | - |
| 1787696705 | 37.78° C | 27% | 1012.6 hPa | 0 mm | - | 169 W/m² | - |
| 1787696401 | 37.78° C | 27% | 1012.5 hPa | 0 mm | - | 192 W/m² | - |
| 1787696096 | 38.89° C | 26% | 1012.7 hPa | 0 mm | - | 237 W/m² | - |
| 1787695795 | 38.33° C | 26% | 1012.6 hPa | 0 mm | - | 402 W/m² | - |
| 1787695492 | 38.33° C | 26% | 1012.5 hPa | 0 mm | - | 319 W/m² | - |
| 1787695192 | 38.89° C | 25% | 1012.7 hPa | 0 mm | - | 367 W/m² | - |
| 1787694891 | 38.89° C | 26% | 1012.8 hPa | 0 mm | - | 272 W/m² | - |
| 1787694587 | 38.89° C | 26% | 1012.5 hPa | 0 mm | - | 424 W/m² | - |
| 1787694287 | 38.89° C | 25% | 1012.7 hPa | 0 mm | - | 428 W/m² | - |
* Rain latest hour (hover to see other rain measurements)
** Current wind speed in m/s (hover to see current wind gust speed)